Regional Weather Roundup
Issued by NWS Wakefield, VA

Home | Current Version | Previous Version | Text Only | Print | Product List | Glossary Off
Versions: 1 2 3 4 5 6 7 8 9 10 11 12 13 14 15 16 17 18 19 20 21 22 23 24 25 26 27 28 29 30 31 32 33 34 35 36 37 38 39 40 41 42 43 44 45 46 47 48 49 50

000
ASUS41 KAKQ 302110
RWRAKQ

REGIONAL WEATHER ROUNDUP
NATIONAL WEATHER SERVICE WAKEFIELD VA
500 PM EDT WED JUL 30 2014

Note: "fair" indicates few or no clouds below 12,000 feet with no
significant weather and/or obstructions to visibility. * = Denotes
station may not report precipitation (e.g., rain,snow,etc.),
thunder or fog.

VAZ042-051-052>054-056-302200-
NORTHERN VIRGINIA

CITY           SKY/WX    TMP DP  RH WIND       PRES   REMARKS
WASH NATIONAL  PTSUNNY   79  54  41 S13       30.04F
DULLES         MOSUNNY   77  51  40 S9        30.03F
FORT BELVOIR   SUNNY     78  55  44 VRB7      30.04F
QUANTICO       MOSUNNY   78  54  43 S8        30.05F
FREDERICKSBRG* SUNNY     80  54  40 W3        30.03F
STAFFORD*      SUNNY     78  53  41 CALM      30.08F
WARRENTON      SUNNY     79  60  52 SE5       30.04F
CULPEPER*      SUNNY    N/A N/A N/A S3        30.04F
MANASSAS*      SUNNY     79  54  41 SW3       30.04F
LEESBURG*      SUNNY     79  55  44 W3        30.04F
WINCHESTER     CLOUDY    77  52  41 SW6       30.03F
$$

VAZ048-049-060>072-079>083-302200-
CENTRAL AND SOUTH CENTRAL VIRGINIA...AND NORTH CENTRAL NORTH CAROLINA

CITY           SKY/WX    TMP DP  RH WIND       PRES   REMARKS
RICHMOND       MOSUNNY   82  52  35 NW8       30.05F
CHESTERFIELD*  CLEAR     79  52  38 SW3       30.07F
HANOVER        SUNNY     81  51  35 SW6       30.06F
TAPPAHANNOCK*  PTSUNNY   78  49  35 CALM      30.05F
CHARLOTTSVILLE MOSUNNY   79  54  41 MISG      30.04F
ORANGE*        SUNNY     79  52  38 CALM      30.06F
LOUISA*        MOSUNNY   79  57  47 S7        30.04F
FARMVILLE*     MOSUNNY   81  54  39 SW6       30.04S
SOUTH HILL*    MOSUNNY   81  63  54 CALM      30.10F
ROANOKE RAPIDS NOT AVBL
RALEIGH        MOSUNNY   77  63  61 E8        30.05F
$$

VAZ088>098-302200-
SOUTHEAST VIRGINIA

CITY           SKY/WX    TMP DP  RH WIND       PRES   REMARKS
NORFOLK        SUNNY     78  56  46 NE7       30.05F
VIRGINIA BEACH MOSUNNY   77  55  46 E10       30.04F
NORFOLK NAVAL  MOSUNNY   80  57  45 NW6       30.06F
WEST POINT*    MOSUNNY   80  53  38 SW5       30.07S
NEWPORT NEWS   MOSUNNY   84  58  40 NW7       30.05F
LANGLEY AFB    MOSUNNY   78  58  49 VRB6      30.04F
FORT EUSTIS    SUNNY     79  59  49 NW5       30.03F
WILLIAMSBURG*  SUNNY     82  61  47 CALM      30.05F
FRANKLIN*      SUNNY     81  59  47 CALM      30.05S
WAKEFIELD      SUNNY     81  57  43 CALM      30.05F
$$

VAZ020-022-025-037-045-302200-
WESTERN AND SOUTHWEST VIRGINIA

CITY           SKY/WX    TMP DP  RH WIND       PRES   REMARKS
STAUNTON*      SUNNY     76  50  39 S5        30.08F
HOT SPRINGS VA PTSUNNY   64  48  56 W7        30.18S
LYNCHBURG      SUNNY     77  53  43 S5        30.08F
DANVILLE       MOSUNNY   81  58  45 VRB5      30.05F
MARTINSVILLE   SUNNY     83  52  33 CALM      30.08F
ROANOKE        PTSUNNY   75  54  47 SE7       30.09F
BLACKSBURG     PTSUNNY   75  52  43 W6          N/A
DUBLIN*        PTSUNNY   76  49  38 CALM      30.11F
MARION*        SUNNY     75  50  41 W9        30.15S
HILLSVILLE*    CLOUDY    73  48  41 CALM      30.12F
RICHLANDS*     PTCLDY    73  53  49 W6        30.14S
WISE*          MOSUNNY   70  50  49 CALM      30.15F
ABINGDON*      SUNNY     75  53  45 CALM      30.11F
$$

MDZ021>025-VAZ099-100-302200-
SOUTHERN MARYLAND AND THE DELMARVA PENINSULA

CITY           SKY/WX    TMP DP  RH WIND       PRES   REMARKS
PATUXENT RIVER MOSUNNY   78  49  35 W7        30.04F
BAY BRIDGE APT   N/A     79  50  36 SE8       30.04F
LEONARDTOWN    MOSUNNY   77  48  36 W7        30.06F
DOVER          PTSUNNY   79  56  44 SW10      30.02F
GEORGETOWN     PTSUNNY   78  53  41 S8        30.05S
EASTON         SUNNY     79  50  36 SW3       30.08F
CAMBRIDGE      SUNNY     79  48  34 W6        30.05S
SALISBURY      SUNNY     81  51  35 W7        30.04F
OCEAN CITY     MOSUNNY   76  59  55 SE7       30.05S
WALLOPS ISLAND SUNNY     80  51  36 NW12      30.05F
ACCOMACK*        N/A     77  52  41 NW7       30.06S
$$

NCZ012>017-030>032-302200-
EASTERN NORTH CAROLINA

CITY           SKY/WX    TMP DP  RH WIND       PRES   REMARKS
ELIZABETH CITY CLOUDY    79  60  52 E5        30.05S
AHOSKIE*       SUNNY     80  59  49 SE3       30.05F
EDENTON*       SUNNY     81  61  49 W3        30.04F
CURRITUCK*     SUNNY     81  57  44 E7        30.06S
KILL DEVIL HLS SUNNY     78  60  53 NE6       30.05S
MANTEO         NOT AVBL
CAPE HATTERAS  SUNNY     80  61  52 E10G17    30.05S
GOLDSBORO      PTSUNNY   82  67  59 NE7       30.01S
WASHINGTON     MOSUNNY   80  61  52 E3        30.05S
GREENVILLE     MOSUNNY   82  63  51 E6        30.05S
NEW BERN       SUNNY     84  64  50 SE8       30.05S
WILMINGTON     SUNNY     83  62  49 E8        30.02F
$$

VAZ048-302200-
ELSEWHERE

CITY           SKY/WX    TMP DP  RH WIND       PRES   REMARKS
HARRISBURG PA  MOSUNNY   78  55  44 VRB5      30.01F
BALTIMORE      MOSUNNY   80  49  33 SW7       30.02F
ANNAPOLIS      MOSUNNY   76  54  46 S10       30.03F
ANDREWS AFB    SUNNY     78  52  39 W8        30.04F
WILMINGTON DE  MOSUNNY   78  55  44 W9        30.04S
PHILADELPHIA   MOSUNNY   78  51  38 SW8       30.03S
WILDWOOD NJ*   SUNNY     77  50  38 W7        30.05F
ATLANTIC CITY  MOSUNNY   80  50  34 MISG      30.02S
HENDERSON NC   PTSUNNY   78  62  57 E5        30.05F
GREENSBORO     PTSUNNY   80  60  50 CALM      30.05F
ROCKY MOUNT    CLOUDY    80  63  55 CALM      30.05R
FAYETTEVILLE   CLOUDY    84  61  45 NE5       30.01F
CHARLOTTE      PTSUNNY   84  58  40 VRB3      30.04F
$$

VAZ100-302200-
MARINE

STATION/POSITION TIME  TEMP    WIND        PRES    WAVE   SWELL
                       AIR SEA DIR/SP/G            HT/PER HT/PER
                 (UTC) (F)     (DEG/KT/KT) (MB)    (FT/S) (FT/S)
44066 TX TWR #4  2100   72 76  310/  4/  8 1017.0S   3/ 8   3/ 8
CAPE MAY NJ      2100   76 79  250/  2/  3 1016.9F
LEWES DE         2100   73 74   70/  7/  7 1017.0F
15NM E FENWICK I 2100   74 75              1017.9F   2/ 8
OCEAN-CITY-INLET 2100   74 72  160/  7/  9 1017.2F
WACHAPREAGUE VA  2100   80 81  290/  2/  6 1017.6F
THOMAS POINT MD  2100   75 78  170/ 10/ 11 1017.6F
GOOSES REEF MD   2100   75     160/  4/  6 1018.0S
COVE POINT MD    2100   76     290/  5/  8 1017.5S
SOLOMONS ISLAND  2100      79                N/A
BISHOPS HEAD MD  2100   75 79  280/  4/  5 1017.3F
PINEY POINT MD   2100          350/  9/ 10   N/A
POTOMAC MD       2100   76     340/  6/  6 1016.9F
CAMBRIDGE MD     2100   76 80  340/  6/  7 1017.3S
LEWISETTA VA     2100   76 77   20/  4/  7 1017.3F
RAPPAHANNOCK LGT 2100          160/  1/  2 1018.3F
STINGRAY PT      2100   75     150/  4/  6 1018.4F
YORK RVR RNG VA  2100   75     130/  6/  7 1017.1F
YORKTOWN VA      2100   77 78  120/  6/  7 1017.2F
JAMESTOWN VA     2100   77      CALM  /  2   N/A
DOMINION TERM VA 2100   77     140/  3/  4 1017.6F
KIPTOPEKE VA     2100      80  270/  2/  3   N/A
CHES BAY BRIDGE  2100   75 77   30/  2/  3 1017.1F
CAPE HENRY VA    2100   75      30/  5/  6 1016.5F
WILLOUBY STN VA  2100          270/  6/  6 1016.9S
S CRANEY ISL VA  2100          350/  4/  5 1017.5F
CAPE HENRY BUOY  2100      80                N/A     2/ 8
1ST LANDING BUOY 2100   76     360/  4/  4 1017.5S
CAPE CHARLES BUO 2100      80                N/A     2/ 8
OFFSHORE WE BUOY 2100      79                N/A     2/ 8
64NM E OF VA BCH 2100   74 78   10/  8/ 12 1017.6F   3/ 8   2/ 8
DUCK PIER NC     2100   75 77   60/  7/  8 1017.1F
44056 DUCK FRF   2100                        N/A     2/ 8
OREGON INLET NC  2100   76 78   50/  7/ 11 1017.8S
HATTERAS NC      2100   78 79   60/  9/ 12 1017.8F
DIAMOND SHLS NC  2100          VRB 12/ 16  1017.2S   4/ 8   2/ 8
CAPE LOOKOUT NC  2100   78      60/ 13/ 15 1017.0F
$$



USA.gov is the U.S. government's official web portal to all federal, state and local government web resources and services.